FENGYUN 1C DEB

Satellite information

Favourite Embed

Satellite Type and Status

DEBRISIN ORBIT

Key statistics

Satellite FENGYUN 1C DEB at a glance.

Uptime

9613

Days in orbit

Revolutions

≈ 14.2

Per day

Orbit

SSO

Sun Synchronous Orbit

Inclination

98.6

Latest

Satellite identification and parameters

Extended collection of information and parameters for FENGYUN 1C DEB.

Object identification

Identified? True

Debris? True

Object name: FENGYUN 1C DEB

International designator: 1999-025CPM

Object number (NORAD): 31984

Object ID (CCSDS): 31984

Country: PEOPLES REPUBLIC OF CHINA (PRC)

Current information (Y/N): Y

RCS size: SMALL

Orbital parameters

Period: 101.217 minutes

Inclination: 98.5593 deg

SMA: 7194.423 km

Apoapsis: 861.937 km

Periapsis: 770.64 km

RAAN: 244.1838 deg

Eccentricy: 0.00634502

Argument of periapsis: 186.4397 deg

Mean anomaly: 173.5973 deg

Mean motion: 14.22685055 rev/day

Mean motion (dot): 0.00000496 rev/day2

B* drag term: 0.00023556579 1/REarth

Two-line elements (TLE)

Creation date: Aug. 25, 2025, 2:12 a.m.

Reference frame: TEME

Reference center: EARTH

Epoch: Aug. 24, 2025, 6:11 p.m. UTC

TLE line 0: 0 FENGYUN 1C DEB

TLE line 1: 1 31984U 99025CPM 25236.75806058 .00000496 00000-0 23557-3 0 9991

TLE line 2: 2 31984 98.5593 244.1838 0063450 186.4397 173.5973 14.22685055928093

Live tracking on map

Real-time ground track for satellite FENGYUN 1C DEB.

In-orbit conjunctions

A list of the most updated potential collisions computed for object FENGYUN 1C DEB.

Target Orbit TCA Probability of collision Miss distance Type
FENGYUN 1C DEB SSO 2024-11-14 22:20:35 0.0001024737 878.0 (m) DEBRIS
CZ-6A DEB LEO 2024-11-11 07:17:00 0.0006536027 224.0 (m) DEBRIS

Associated space launch

Chinese polar orbiting meteorological satellite

FENGYUN 1C DEB was lifted into orbit during the mission ‘Long March 4B | Feng Yun 1C’, on board a Long March 4B space rocket.

The launch took place on May 10, 1999, 1:33 a.m. from Launch Complex 7.

For more information about the launch, click the button.

Launch to space Long March 4B | Feng Yun 1C
Long March 4B | Feng Yun 1C

Agency: N/A

Status: Launch Successful

Launch date: May 10, 1999, 1:33 a.m. UTC

Rocket: Long March 4B

Launch pad: Launch Complex 7

Location: Taiyuan Satellite Launch Center, People's Republic of China

...

Latest news about this satellite

There are no fresh news available about this satellite. Check back as we update our databases every day.


Newsletter sign-up

Weekly statistics, charts and insights to help you stay on top of the space industry.